| time (UTC) | temp F | wind direction | speed MPH | gust MPH | rain 1hr in | rain 24hr in | rain mn in | humidity % | barometer mb |
| 20260505113111 | 51 | 0 | 0.0 | 0.0 | 0.00 | 0.00 | 0.00 | 78 | 1000.5 |
| 20260505111551 | 51 | 0 | 0.0 | 0.0 | 0.00 | 0.00 | 0.00 | 77 | 1000.5 |
| 20260505101553 | 52 | 0 | 0.0 | 0.0 | 0.00 | 0.00 | 0.00 | 73 | 1000.2 |
| 20260505100053 | 52 | 0 | 0.0 | 0.0 | 0.00 | 0.00 | 0.00 | 73 | 1000.0 |
| 20260505094553 | 52 | 0 | 0.0 | 0.0 | 0.00 | 0.00 | 0.00 | 72 | 999.8 |
| 20260505093059 | 52 | 0 | 0.0 | 0.0 | 0.00 | 0.00 | 0.00 | 72 | 999.9 |
| 20260505091603 | 52 | 0 | 0.0 | 0.0 | 0.00 | 0.00 | 0.00 | 71 | 999.5 |
| 20260505090052 | 52 | 0 | 0.0 | 0.0 | 0.00 | 0.00 | 0.00 | 70 | 999.5 |
| 20260505084554 | 53 | 0 | 0.0 | 0.0 | 0.00 | 0.00 | 0.00 | 70 | 999.8 |
| 20260505083100 | 53 | 0 | 0.0 | 0.0 | 0.00 | 0.00 | 0.00 | 69 | 999.7 |
| 20260505081559 | 53 | 0 | 0.0 | 0.0 | 0.00 | 0.00 | 0.00 | 69 | 999.7 |
| 20260505080056 | 53 | 0 | 0.0 | 0.0 | 0.00 | 0.00 | 0.00 | 68 | 999.8 |
| 20260505074552 | 54 | 0 | 0.0 | 0.0 | 0.00 | 0.00 | 0.00 | 66 | 999.8 |
| 20260505073129 | 55 | 0 | 0.0 | 0.0 | 0.00 | 0.00 | 0.00 | 65 | 999.6 |
| 20260505071600 | 56 | 0 | 0.0 | 0.0 | 0.00 | 0.00 | 0.00 | 62 | 999.7 |
| 20260505064556 | 60 | 0 | 0.0 | 0.0 | 0.00 | 0.00 | 0.00 | 55 | 999.6 |
| 20260505063054 | 59 | 0 | 0.0 | 0.0 | 0.00 | 0.00 | 0.00 | 55 | 999.6 |
| 20260505061601 | 59 | 0 | 0.0 | 0.0 | 0.00 | 0.00 | 0.00 | 55 | 999.6 |
| 20260505060055 | 59 | 0 | 0.0 | 0.0 | 0.00 | 0.00 | 0.00 | 56 | 999.7 |
| 20260505054551 | 59 | 0 | 0.0 | 0.0 | 0.00 | 0.00 | 0.00 | 56 | 999.7 |
| 20260505053058 | 59 | 0 | 0.0 | 0.0 | 0.00 | 0.00 | 0.00 | 56 | 1000.0 |
| 20260505051604 | 59 | 0 | 0.0 | 0.0 | 0.00 | 0.00 | 0.00 | 55 | 1000.1 |
| 20260505050103 | 59 | 0 | 0.0 | 0.0 | 0.00 | 0.00 | 0.00 | 56 | 1000.0 |
| 20260505041557 | 58 | 0 | 0.0 | 0.0 | 0.00 | 0.00 | 0.00 | 57 | 1000.2 |
| 20260505040057 | 59 | 0 | 0.0 | 0.0 | 0.00 | 0.00 | 0.00 | 55 | 1000.3 |
| 20260505034554 | 60 | 0 | 0.0 | 0.0 | 0.00 | 0.00 | 0.00 | 53 | 1000.1 |
| 20260505033052 | 60 | 0 | 0.0 | 0.0 | 0.00 | 0.00 | 0.00 | 53 | 1000.1 |
| 20260505031555 | 60 | 0 | 0.0 | 0.0 | 0.00 | 0.00 | 0.00 | 52 | 1000.1 |
| 20260505030057 | 60 | 0 | 0.0 | 0.0 | 0.00 | 0.00 | 0.00 | 52 | 1000.2 |
| 20260505024604 | 61 | 0 | 0.0 | 0.0 | 0.00 | 0.00 | 0.00 | 51 | 1000.2 |
| 20260505023055 | 61 | 0 | 0.0 | 0.0 | 0.00 | 0.00 | 0.00 | 50 | 1000.2 |
| 20260505021553 | 61 | 0 | 0.0 | 0.0 | 0.00 | 0.00 | 0.00 | 49 | 1000.3 |
| 20260505020053 | 61 | 0 | 0.0 | 0.0 | 0.00 | 0.00 | 0.00 | 49 | 1000.2 |
| 20260505014553 | 62 | 0 | 0.0 | 0.0 | 0.00 | 0.00 | 0.00 | 48 | 1000.2 |
| 20260505013112 | 62 | 0 | 0.0 | 0.0 | 0.00 | 0.00 | 0.00 | 48 | 1000.0 |
| 20260505011602 | 63 | 0 | 0.0 | 0.0 | 0.00 | 0.00 | 0.00 | 47 | 999.8 |
| 20260505004552 | 64 | 0 | 0.0 | 0.0 | 0.00 | 0.00 | 0.00 | 45 | 999.5 |
| 20260505003056 | 64 | 0 | 0.0 | 0.0 | 0.00 | 0.00 | 0.00 | 45 | 999.3 |
| 20260505001547 | 65 | 0 | 0.0 | 0.0 | 0.00 | 0.00 | 0.00 | 45 | 999.1 |
| 20260505000100 | 65 | 0 | 0.0 | 0.0 | 0.00 | 0.00 | 0.00 | 44 | 998.9 |
| 20260504234549 | 65 | 0 | 0.0 | 0.0 | 0.00 | 0.00 | 0.00 | 44 | 998.7 |
| 20260504233055 | 66 | 0 | 0.0 | 0.0 | 0.00 | 0.00 | 0.00 | 44 | 998.4 |
| 20260504231550 | 67 | 0 | 0.0 | 0.0 | 0.00 | 0.00 | 0.00 | 43 | 998.3 |
| 20260504230059 | 67 | 0 | 0.0 | 0.0 | 0.00 | 0.00 | 0.00 | 43 | 998.1 |
| 20260504224549 | 68 | 0 | 0.0 | 0.0 | 0.00 | 0.00 | 0.00 | 41 | 997.9 |
| 20260504223058 | 69 | 0 | 0.0 | 0.0 | 0.00 | 0.00 | 0.00 | 39 | 997.9 |
| 20260504221552 | 69 | 0 | 0.0 | 0.0 | 0.00 | 0.00 | 0.00 | 40 | 997.9 |
| 20260504220049 | 70 | 0 | 0.0 | 0.0 | 0.00 | 0.00 | 0.00 | 37 | 998.1 |
| 20260504214606 | 70 | 0 | 0.0 | 0.0 | 0.00 | 0.00 | 0.00 | 36 | 998.3 |
| 20260504213058 | 70 | 0 | 0.0 | 0.0 | 0.00 | 0.00 | 0.00 | 37 | 998.3 |
| 20260504211553 | 70 | 0 | 0.0 | 0.0 | 0.00 | 0.00 | 0.00 | 37 | 998.4 |
| 20260504210055 | 70 | 0 | 0.0 | 6.0 | 0.00 | 0.00 | 0.00 | 38 | 998.4 |
| 20260504204552 | 70 | 0 | 0.0 | 0.0 | 0.00 | 0.00 | 0.00 | 35 | 998.4 |
| 20260504203103 | 70 | 0 | 0.0 | 0.0 | 0.00 | 0.00 | 0.00 | 34 | 998.7 |
| 20260504201613 | 69 | 0 | 0.0 | 4.0 | 0.00 | 0.00 | 0.00 | 35 | 998.6 |
| 20260504200051 | 69 | 196 | 1.0 | 4.0 | 0.00 | 0.00 | 0.00 | 37 | 998.6 |
| 20260504194600 | 69 | 156 | 2.0 | 9.0 | 0.00 | 0.00 | 0.00 | 34 | 998.9 |
| 20260504193109 | 70 | 154 | 4.0 | 11.0 | 0.00 | 0.00 | 0.00 | 34 | 998.9 |
| 20260504191601 | 69 | 195 | 3.0 | 12.0 | 0.00 | 0.00 | 0.00 | 35 | 998.9 |
| 20260504190113 | 69 | 160 | 2.0 | 11.0 | 0.00 | 0.00 | 0.00 | 37 | 998.9 |
| 20260504184608 | 68 | 156 | 2.0 | 9.0 | 0.00 | 0.00 | 0.00 | 36 | 999.1 |
| 20260504183054 | 70 | 164 | 2.0 | 8.0 | 0.00 | 0.00 | 0.00 | 36 | 999.1 |
| 20260504181556 | 68 | 0 | 2.0 | 8.0 | 0.00 | 0.00 | 0.00 | 37 | 999.4 |
| 20260504180059 | 68 | 189 | 3.0 | 11.0 | 0.00 | 0.00 | 0.00 | 36 | 999.5 |
| 20260504174551 | 67 | 234 | 3.0 | 12.0 | 0.00 | 0.00 | 0.00 | 35 | 999.7 |
| 20260504173051 | 67 | 182 | 3.0 | 8.0 | 0.00 | 0.00 | 0.00 | 36 | 999.7 |
| 20260504171608 | 66 | 222 | 2.0 | 9.0 | 0.00 | 0.00 | 0.00 | 37 | 1000.1 |
| 20260504160104 | 64 | 174 | 2.0 | 6.0 | 0.00 | 0.00 | 0.00 | 38 | 1000.8 |
| 20260504140106 | 59 | 157 | 4.0 | 8.0 | 0.00 | 0.00 | 0.00 | 45 | 1001.9 |
| 20260504120109 | 43 | 0 | 0.0 | 2.0 | 0.00 | 0.00 | 0.00 | 72 | 1003.1 |